| time (UTC) | temp C | wind direction | speed KPH | gust KPH | rain 1hr cm | rain 24hr cm | rain mn cm | humidity % | barometer mb |
| 20260504081545 | 15 | 4 | 0.0 | 4.8 | 0.00 | 0.00 | 0.00 | 60 | 1009.7 |
| 20260504044528 | 19 | 295 | 0.0 | 4.8 | 0.00 | 0.00 | 0.00 | 47 | 1010.1 |
| 20260504043026 | 18 | 283 | 0.0 | 0.0 | 0.00 | 0.00 | 0.00 | 47 | 1010.1 |
| 20260504041525 | 18 | 276 | 0.0 | 3.2 | 0.00 | 0.00 | 0.00 | 53 | 1010.1 |
| 20260504040029 | 18 | 343 | 0.0 | 0.0 | 0.00 | 0.00 | 0.00 | 61 | 1010.1 |
| 20260504034538 | 18 | 56 | 0.0 | 0.0 | 0.00 | 0.00 | 0.00 | 56 | 1010.1 |
| 20260504033029 | 18 | 272 | 0.0 | 0.0 | 0.00 | 0.00 | 0.00 | 54 | 1010.0 |
| 20260504031524 | 20 | 352 | 0.0 | 0.0 | 0.00 | 0.00 | 0.00 | 53 | 1010.0 |
| 20260504030035 | 21 | 353 | 0.0 | 0.0 | 0.00 | 0.00 | 0.00 | 47 | 1010.1 |
| 20260504024523 | 21 | 353 | 0.0 | 0.0 | 0.00 | 0.00 | 0.00 | 42 | 1010.1 |
| 20260504023021 | 22 | 353 | 0.0 | 0.0 | 0.00 | 0.00 | 0.00 | 40 | 1010.1 |
| 20260504021521 | 23 | 353 | 0.0 | 1.6 | 0.00 | 0.00 | 0.00 | 40 | 1010.1 |
| 20260504020020 | 25 | 276 | 0.0 | 0.0 | 0.00 | 0.00 | 0.00 | 38 | 1010.2 |
| 20260504014520 | 25 | 283 | 0.0 | 0.0 | 0.00 | 0.00 | 0.00 | 36 | 1010.2 |
| 20260504013015 | 26 | 283 | 0.0 | 0.0 | 0.00 | 0.00 | 0.00 | 37 | 1010.2 |
| 20260504011514 | 26 | 151 | 0.0 | 0.0 | 0.00 | 0.00 | 0.00 | 38 | 1010.4 |
| 20260504010011 | 27 | 82 | 0.0 | 0.0 | 0.00 | 0.00 | 0.00 | 35 | 1010.4 |
| 20260504004509 | 27 | 120 | 0.0 | 1.6 | 0.00 | 0.00 | 0.00 | 35 | 1010.6 |
| 20260504003007 | 28 | 120 | 0.0 | 6.4 | 0.00 | 0.00 | 0.00 | 33 | 1010.8 |
| 20260504001506 | 28 | 120 | 0.0 | 6.4 | 0.00 | 0.00 | 0.00 | 34 | 1010.9 |
| 20260504000005 | 28 | 185 | 0.0 | 8.0 | 0.00 | 0.00 | 0.00 | 33 | 1011.1 |
| 20260503234503 | 28 | 148 | 0.0 | 6.4 | 0.00 | 0.00 | 0.00 | 32 | 1011.3 |
| 20260503233001 | 28 | 110 | 3.2 | 11.3 | 0.00 | 0.00 | 0.00 | 30 | 1011.3 |
| 20260503231600 | 28 | 113 | 0.0 | 8.0 | 0.00 | 0.00 | 0.00 | 32 | 1011.5 |
| 20260503230100 | 28 | 126 | 0.0 | 6.4 | 0.00 | 0.00 | 0.00 | 34 | 1011.7 |
| 20260503224557 | 28 | 125 | 0.0 | 6.4 | 0.00 | 0.00 | 0.00 | 34 | 1011.8 |
| 20260503223056 | 28 | 134 | 0.0 | 6.4 | 0.00 | 0.00 | 0.00 | 33 | 1012.0 |
| 20260503221553 | 28 | 104 | 0.0 | 8.0 | 0.00 | 0.00 | 0.00 | 34 | 1012.2 |
| 20260503220052 | 28 | 119 | 0.0 | 12.9 | 0.00 | 0.00 | 0.00 | 34 | 1012.4 |
| 20260503214555 | 28 | 108 | 0.0 | 1.6 | 0.00 | 0.00 | 0.00 | 35 | 1012.5 |
| 20260503213117 | 28 | 108 | 0.0 | 3.2 | 0.00 | 0.00 | 0.00 | 36 | 1012.6 |
| 20260503211613 | 27 | 134 | 0.0 | 14.5 | 0.00 | 0.00 | 0.00 | 36 | 1012.8 |
| 20260503210043 | 27 | 113 | 0.0 | 4.8 | 0.00 | 0.00 | 0.00 | 36 | 1012.9 |
| 20260503204557 | 27 | 124 | 0.0 | 6.4 | 0.00 | 0.00 | 0.00 | 37 | 1013.1 |
| 20260503203040 | 26 | 114 | 0.0 | 11.3 | 0.00 | 0.00 | 0.00 | 42 | 1013.3 |
| 20260503201538 | 26 | 184 | 3.2 | 14.5 | 0.00 | 0.00 | 0.00 | 43 | 1013.4 |
| 20260503200033 | 26 | 199 | 1.6 | 9.7 | 0.00 | 0.00 | 0.00 | 43 | 1013.6 |
| 20260503194530 | 25 | 211 | 0.0 | 8.0 | 0.00 | 0.00 | 0.00 | 44 | 1013.8 |
| 20260503193029 | 25 | 131 | 1.6 | 9.7 | 0.00 | 0.00 | 0.00 | 47 | 1014.0 |
| 20260503191526 | 25 | 103 | 0.0 | 9.7 | 0.00 | 0.00 | 0.00 | 49 | 1014.1 |
| 20260503190029 | 24 | 126 | 1.6 | 9.7 | 0.00 | 0.00 | 0.00 | 48 | 1014.2 |
| 20260503184527 | 24 | 124 | 4.8 | 11.3 | 0.00 | 0.00 | 0.00 | 48 | 1014.3 |
| 20260503183020 | 24 | 103 | 0.0 | 9.7 | 0.00 | 0.00 | 0.00 | 48 | 1014.4 |
| 20260503181518 | 23 | 166 | 0.0 | 14.5 | 0.00 | 0.00 | 0.00 | 52 | 1014.4 |
| 20260503180026 | 23 | 155 | 3.2 | 9.7 | 0.00 | 0.00 | 0.00 | 49 | 1014.4 |
| 20260503174520 | 23 | 124 | 0.0 | 9.7 | 0.00 | 0.00 | 0.00 | 51 | 1014.6 |
| 20260503173015 | 23 | 127 | 1.6 | 8.0 | 0.00 | 0.00 | 0.00 | 48 | 1014.6 |
| 20260503171517 | 23 | 121 | 0.0 | 0.0 | 0.00 | 0.00 | 0.00 | 47 | 1014.7 |